Auckland Airport, New Zealand

7:05 AM NZST on July 27, 2016 (GMT +1200)
Auckland International

Weather History for NZAA - June, 2014

Change the Weather History Date:

Sunday, June 8, 2014

  Actual Average Record
Temperature  
Mean Temperature 57 °F -  
Max Temperature 66 °F 59 °F 69 °F (1998)
Min Temperature 48 °F 47 °F 41 °F (2006)
Degree Days  
Heating Degree Days 8    
Growing Degree Days 7 (Base 50)    
Moisture  
Dew Point 55 °F    
Average Humidity 89    
Maximum Humidity 100    
Minimum Humidity 77    
Precipitation  
Precipitation 0.00 in - - ()
Sea Level Pressure  
Sea Level Pressure 30.27 in    
Wind  
Wind Speed 6 mph ()    
Max Wind Speed 15 mph    
Max Gust Speed -    
Visibility 6.1 miles    
Events Fog , Rain    
Averages and records for this station are not official NWS values.
T = Trace of Precipitation, MM = Missing Value Source: Averaged Metar Reports

Daily Weather History Graph

Daily Weather History Graph

Search for Another Location

Airport or City:

Trip Planner

Search our weather history database for the weather conditions in past years. The results will help you decide how hot, cold, wet, or windy it might be!

Date:

Astronomy

Jun. 08, 2014 Rise Set
Actual Time 7:28 AM NZST 5:10 PM NZST
Civil Twilight 7:00 AM NZST 5:39 PM NZST
Nautical Twilight 6:27 AM NZST 6:11 PM NZST
Astronomical Twilight 5:56 AM NZST 6:43 PM NZST
Moon 1:40 PM NZST (6/8) 1:48 AM NZST (6/8)
Length of Visible Light 10h 39m
Length of Day
9h 41m
Waxing Gibbous, 71% of the Moon is Illuminated
Jun 8
Waxing Gibbous
Jun 13
Full
Jun 20
Last Quarter
Jun 27
New
Jul 6
First Quarter

Hourly Weather History & Observations

Time (NZST) Temp. Dew Point Humidity Pressure Visibility Wind Dir Wind Speed Gust Speed Precip Events Conditions
12:00 AM 50.0 °F 48.2 °F 94% 30.30 in 6.2 mi NE 3.5 mph - N/A   Unknown
1:00 AM 51.8 °F 50.0 °F 94% 30.27 in 6.2 mi ENE 3.5 mph - N/A   Unknown
1:30 AM 50.0 °F 50.0 °F 100% 30.27 in 6.2 mi NE 2.3 mph - N/A   Unknown
2:00 AM 50.0 °F 50.0 °F 100% 30.27 in 6.2 mi Calm Calm - N/A   Unknown
2:30 AM 50.0 °F 50.0 °F 100% 30.27 in 6.2 mi ESE 2.3 mph - N/A   Unknown
3:00 AM 50.0 °F 50.0 °F 100% 30.27 in 6.2 mi ESE 3.5 mph - N/A   Unknown
3:30 AM 50.0 °F 48.2 °F 94% 30.27 in 6.2 mi ESE 2.3 mph - N/A   Unknown
4:00 AM 48.2 °F 48.2 °F 100% 30.27 in 6.2 mi East 3.5 mph - N/A   Unknown
4:30 AM 50.0 °F 48.2 °F 94% 30.27 in 6.2 mi ENE 2.3 mph - N/A   Unknown
5:30 AM 51.8 °F 50.0 °F 94% 30.27 in 6.2 mi ESE 3.5 mph - N/A   Partly Cloudy
6:00 AM 50.0 °F 50.0 °F 100% 30.27 in 6.2 mi East 2.3 mph - N/A   Unknown
6:30 AM 51.8 °F 50.0 °F 94% 30.27 in 6.2 mi Calm Calm - N/A   Unknown
7:00 AM 50.0 °F 50.0 °F 100% 30.27 in - Calm Calm - N/A Fog Fog
7:30 AM 50.0 °F 50.0 °F 100% 30.27 in 1.3 mi Calm Calm - N/A Fog Patches of Fog
8:00 AM 50.0 °F 50.0 °F 100% 30.30 in 6.2 mi NE 2.3 mph - N/A   Unknown
8:30 AM 51.8 °F 50.0 °F 94% 30.30 in 6.2 mi ENE 4.6 mph - N/A   Unknown
9:00 AM 57.2 °F 55.4 °F 94% 30.30 in 6.2 mi ENE 8.1 mph - N/A   Unknown
9:30 AM 60.8 °F 55.4 °F 82% 30.30 in 6.2 mi ENE 9.2 mph - N/A   Unknown
10:00 AM 60.8 °F 57.2 °F 88% 30.30 in 6.2 mi ENE 8.1 mph - N/A   Mostly Cloudy
10:30 AM 62.6 °F 57.2 °F 82% 30.30 in 6.2 mi ENE 11.5 mph - N/A   Partly Cloudy
11:00 AM 64.4 °F 57.2 °F 77% 30.30 in 6.2 mi ENE 12.7 mph - N/A   Partly Cloudy
11:30 AM 62.6 °F 57.2 °F 82% 30.27 in 6.2 mi NE 12.7 mph - N/A   Partly Cloudy
12:00 PM 62.6 °F 57.2 °F 82% 30.27 in 6.2 mi NE 12.7 mph - N/A   Partly Cloudy
12:30 PM 64.4 °F 59.0 °F 83% 30.27 in 6.2 mi NE 11.5 mph - N/A   Unknown
1:00 PM 64.4 °F 59.0 °F 83% 30.27 in 6.2 mi NE 11.5 mph - N/A   Mostly Cloudy
1:30 PM 66.2 °F 59.0 °F 78% 30.24 in 6.2 mi NE 15.0 mph - N/A   Mostly Cloudy
2:00 PM 64.4 °F 57.2 °F 77% 30.24 in 6.2 mi NE 15.0 mph - N/A   Mostly Cloudy
2:30 PM 66.2 °F 59.0 °F 78% 30.24 in 6.2 mi NE 12.7 mph - N/A   Mostly Cloudy
3:00 PM 64.4 °F 57.2 °F 77% 30.24 in 6.2 mi NE 11.5 mph - N/A   Scattered Clouds
3:30 PM 64.4 °F 57.2 °F 77% 30.24 in 6.2 mi NE 12.7 mph - N/A   Scattered Clouds
4:00 PM 64.4 °F 57.2 °F 77% 30.24 in 6.2 mi NE 12.7 mph - N/A   Unknown
4:30 PM 62.6 °F 57.2 °F 82% 30.24 in 6.2 mi NE 12.7 mph - N/A   Mostly Cloudy
5:00 PM 60.8 °F 57.2 °F 88% 30.24 in 6.2 mi NE 10.4 mph - N/A   Partly Cloudy
5:30 PM 60.8 °F 57.2 °F 88% 30.24 in 6.2 mi NE 10.4 mph - N/A   Unknown
6:00 PM 60.8 °F 55.4 °F 82% 30.24 in 6.2 mi NE 11.5 mph - N/A   Unknown
6:30 PM 60.8 °F 55.4 °F 82% 30.24 in 6.2 mi ENE 6.9 mph - N/A   Unknown
7:00 PM 60.8 °F 57.2 °F 88% 30.27 in 6.2 mi ENE 9.2 mph - N/A   Unknown
7:30 PM 60.8 °F 57.2 °F 88% 30.27 in 6.2 mi ENE 8.1 mph - N/A   Unknown
8:00 PM 60.8 °F 57.2 °F 88% 30.27 in 6.2 mi ENE 8.1 mph - N/A   Partly Cloudy
8:30 PM 60.8 °F 57.2 °F 88% 30.27 in 6.2 mi ENE 6.9 mph - N/A   Unknown
9:00 PM 60.8 °F 57.2 °F 88% 30.27 in 6.2 mi ENE 10.4 mph - N/A   Partly Cloudy
9:30 PM 60.8 °F 57.2 °F 88% 30.27 in 6.2 mi ENE 9.2 mph - N/A   Scattered Clouds
10:00 PM 60.8 °F 57.2 °F 88% 30.27 in 6.2 mi ENE 10.4 mph - N/A   Mostly Cloudy
10:30 PM 60.8 °F 57.2 °F 88% 30.27 in 6.2 mi ENE 10.4 mph - N/A   Mostly Cloudy
11:00 PM 60.8 °F 57.2 °F 88% 30.27 in 6.2 mi ENE 10.4 mph - N/A   Overcast
11:30 PM 60.8 °F 57.2 °F 88% 30.27 in 6.2 mi ENE 10.4 mph - N/A Rain Light Rain